Location: Bruderhein
(53.8035°N, 112.9265°W)
Time: 07:04:38
(UTC+00:00)

CUTE-I - Visible Passes

Search period start: 01 April 2023 00:00
Search period end: 11 April 2023 00:00
Orbit: 809 x 823 km, 98.7° (Epoch: 31 March)

Date Brightness Start Highest point End Pass type
(mag) Time Alt. Az. Time Alt. Az. Time Alt. Az.
01 Apr ? 02:39:07 10° WSW 02:41:38 13° W 02:44:10 10° NW visible
03 Apr ? 12:22:58 10° NE 12:25:42 14° E 12:28:26 10° ESE visible
05 Apr ? 02:53:16 10° W 02:54:15 10° W 02:55:14 10° WNW visible
08 Apr ? 12:14:08 10° ENE 12:15:59 12° E 12:17:50 10° ESE visible
